TimeCDT,TemperatureF,Dew PointF,Humidity,Sea Level PressureIn,VisibilityMPH,Wind Direction,Wind SpeedMPH,Gust SpeedMPH,PrecipitationIn,Events,Conditions,WindDirDegrees,DateUTC
12:53 AM,52.0,48.0,86,30.24,10.0,Calm,Calm,-,N/A,,Clear,0,2013-04-27 05:53:00
1:53 AM,51.1,48.0,89,30.22,10.0,Calm,Calm,-,N/A,,Clear,0,2013-04-27 06:53:00
2:53 AM,51.1,48.0,89,30.20,10.0,Calm,Calm,-,N/A,,Clear,0,2013-04-27 07:53:00
3:53 AM,50.0,48.0,93,30.20,10.0,Calm,Calm,-,N/A,,Clear,0,2013-04-27 08:53:00
4:53 AM,52.0,46.9,83,30.20,10.0,Calm,Calm,-,N/A,,Clear,0,2013-04-27 09:53:00
5:53 AM,50.0,48.0,93,30.22,10.0,Calm,Calm,-,N/A,,Clear,0,2013-04-27 10:53:00
6:53 AM,55.9,53.1,90,30.22,10.0,Calm,Calm,-,N/A,,Clear,0,2013-04-27 11:53:00
7:53 AM,64.0,55.0,73,30.23,10.0,ESE,4.6,-,N/A,,Scattered Clouds,120,2013-04-27 12:53:00
8:53 AM,69.1,57.9,68,30.23,10.0,Variable,4.6,-,N/A,,Partly Cloudy,0,2013-04-27 13:53:00
9:53 AM,73.0,61.0,66,30.23,10.0,South,8.1,-,N/A,,Partly Cloudy,180,2013-04-27 14:53:00
10:53 AM,75.9,61.0,60,30.23,10.0,South,5.8,16.1,N/A,,Scattered Clouds,180,2013-04-27 15:53:00
11:53 AM,75.9,61.0,60,30.21,10.0,SSE,5.8,-,N/A,,Mostly Cloudy,160,2013-04-27 16:53:00
12:53 PM,80.1,62.1,54,30.18,10.0,Variable,6.9,16.1,N/A,,Mostly Cloudy,0,2013-04-27 17:53:00
1:53 PM,80.1,61.0,52,30.15,10.0,South,10.4,-,N/A,,Scattered Clouds,170,2013-04-27 18:53:00
2:53 PM,82.0,61.0,49,30.12,10.0,SSW,6.9,17.3,N/A,,Scattered Clouds,200,2013-04-27 19:53:00
3:53 PM,82.0,60.1,47,30.10,10.0,South,5.8,-,N/A,,Overcast,180,2013-04-27 20:53:00
4:53 PM,80.1,61.0,52,30.09,10.0,South,6.9,-,N/A,,Overcast,180,2013-04-27 21:53:00
5:53 PM,79.0,63.0,58,30.09,10.0,South,3.5,-,N/A,,Mostly Cloudy,180,2013-04-27 22:53:00
6:53 PM,75.9,64.9,69,30.09,10.0,SW,10.4,-,N/A,,Partly Cloudy,230,2013-04-27 23:53:00
7:36 PM,73.4,64.4,73,30.09,10.0,SW,6.9,-,N/A,Thunderstorm,Thunderstorm,230,2013-04-28 00:36:00
7:53 PM,73.9,64.0,71,30.09,10.0,SW,8.1,-,N/A,,Clear,220,2013-04-28 00:53:00
8:04 PM,73.4,64.4,73,30.10,10.0,SSW,8.1,-,N/A,Thunderstorm,Thunderstorm,210,2013-04-28 01:04:00
8:37 PM,71.6,64.4,78,30.11,10.0,SW,4.6,-,N/A,,Mostly Cloudy,230,2013-04-28 01:37:00
8:51 PM,71.6,64.4,78,30.11,10.0,SSW,8.1,-,N/A,Thunderstorm,Thunderstorm,210,2013-04-28 01:51:00
8:53 PM,72.0,64.0,76,30.11,10.0,SW,8.1,-,N/A,Thunderstorm,Thunderstorm,220,2013-04-28 01:53:00
9:06 PM,71.6,64.4,78,30.12,10.0,SW,6.9,-,N/A,,Overcast,220,2013-04-28 02:06:00
9:53 PM,70.0,64.9,84,30.10,10.0,SSW,8.1,-,N/A,Thunderstorm,Thunderstorm,200,2013-04-28 02:53:00
10:19 PM,69.8,64.4,83,30.10,10.0,South,6.9,-,N/A,,Clear,190,2013-04-28 03:19:00
10:53 PM,68.0,64.9,90,30.09,10.0,SW,6.9,-,N/A,,Clear,220,2013-04-28 03:53:00
11:53 PM,66.9,64.0,90,30.10,10.0,Calm,Calm,-,N/A,,Clear,0,2013-04-28 04:53:00